Regional Weather Roundup
Issued by NWS Newport/Morehead, NC

Current Version | Previous Version | Text Only | Print | Product List | Glossary On
Versions: 1 2 3 4 5 6 7 8 9 10 11 12 13 14 15 16 17 18 19 20 21 22 23 24 25 26 27 28 29 30 31 32 33 34 35 36 37 38 39 40 41 42 43 44 45 46 47 48 49 50
000
ASUS42 KMHX 280922
RWRMHX
WEATHER ROUNDUP FOR EASTERN NORTH CAROLINA
NATIONAL WEATHER SERVICE NEWPORT/MOREHEAD CITY NC
500 AM EDT MON JUL 28 2014

NOTE: "FAIR" INDICATES FEW OR NO CLOUDS BELOW 12,000 FEET
WITH NO SIGNIFICANT WEATHER AND/OR OBSTRUCTIONS TO VISIBILITY

NCZ015>017-031-032-045>047-102-103-281000-
NORTH COAST

CITY           SKY/WX    TMP DP  RH WIND       PRES   REMARKS
EDENTON        CLOUDY    81  74  78 W9        29.72R
ELIZABETH CITY MOCLDY    79  74  84 SW12      29.68F
KITTY HAWK     PTSUNNY   81  75  82 SW10      29.69S
MANTEO         NOT AVBL

$$

NCZ045>047-081-094-103-104-281000-
CENTRAL COAST

CITY           SKY/WX    TMP DP  RH WIND       PRES   REMARKS
FRISCO         PTCLDY    81  80  97 SW15G24   29.75F
SWANQUARTER      N/A     82 N/A N/A SW20      29.71S

$$

NCZ095-097-098-100-101-281000-
SOUTHERN COAST

CITY           SKY/WX    TMP DP  RH WIND       PRES   REMARKS
BEAUFORT       CLOUDY    83  79  88 SW16        N/A
CEDAR ISLAND     N/A     82 N/A N/A S15G23    29.79S
JACKSONVILLE   MOCLDY    82  73  74 SW8       29.78R
NEWPORT        NOT AVBL
PINEY ISLAND   PTSUNNY   84  80  88 SW15      29.76R
WILMINGTON     PTCLDY    84  73  69 W18G25    29.79R


$$

NCZ011>013-027>030-043-044-078>080-089-090>093-098-281000-
COASTAL PLAIN

CITY           SKY/WX    TMP DP  RH WIND       PRES   REMARKS
AHOSKIE        CLOUDY    76  71  85 CALM      29.70R
CLINTON        CLOUDY    82  73  75 W7        29.78F
ELIZABETHTOWN  CLOUDY    82  72  70 W7        29.80R
GOLDSBORO      CLOUDY    80  75  84 W13       29.74R
GREENVILLE     MOCLDY    79  73  83 W5        29.77R
HAVELOCK       MOCLDY    81  76  84 SW12      29.78R
KENANSVILLE    CLOUDY    78  72  83 SW3       29.78R
KINSTON        MOCLDY    81  72  74 SW7       29.76R
NEW BERN       MOCLDY    83  74  74 SW9       29.77S
RICHLANDS      CLOUDY    79  72  78 SW7       29.78S
ROANOKE RAPIDS NOT AVBL
ROCKY MOUNT    CLOUDY    82  65  56 SW6       29.73R
WASHINGTON     MOCLDY    79  73  83 SW6G16    29.73S
WHITEVILLE     MOCLDY    81  73  76 SW7       29.80F

$$

AMZ130-135-150-152-154-156-158-170-250-252-270-ANZ085-086-088-633-658-670-281000-
MARINE OBSERVATIONS

STATION/POSITION TIME  TEMP    WIND        PRES    WAVE   SWELL
                       AIR SEA DIR/SP/G            HT/PER HT/PER
                 (UTC) (F)     (DEG/KT/KT) (MB)    (FT/S) (FT/S)
CHESAPEAKE LIGHT NOT AVBL
BUOY 44014       0900   80 78  210/ 19/ 23 1004.3    4/ 5   2/ 9
DUCK             0900   82 64  220/ 15/ 19 1004.6
2E DUCK          0900                        N/A     2/10
OREGON INLET     0900   82 82  210/ 18/ 22 1006.1
BUOY 44095       0900      78                N/A     4/ 5
20E OREGON INLET NOT AVBL
HATTERAS CG      0900   81 82  220/ 11/ 18 1007.8
DIAMOND BUOY     0900          VRB 21/ 25  1007.2    5/ 6   2/ 9
CAPE LOOKOUT     0900   83     230/ 16/ 22 1008.7
BEAUFORT LAB     0900   83 83  230/  7/ 15 1008.5
30 SE NEW RIVER  0900   83 81  220/ 21/ 27 1008.4    6/ 6   2/10
5 SE WRIGHTSVILL 0900   80 82  240/ 17/ 19   N/A
BUOY 41002       0814   81 80  240/ 16/ 19 1014.4    6/ 6   2/ 9
BUOY 41004       0900   85 83  230/ 16/ 19 1011.0    5/ 6   2/10

$$


USA.gov is the U.S. government's official web portal to all federal, state and local government web resources and services.